Regional Weather Roundup
Issued by NWS

Home | Current Version | Previous Version | Text Only | Print | Product List | Glossary Off
Versions: 1 2 3 4 5 6 7 8 9 10 11 12 13 14 15 16 17 18 19 20 21 22 23 24 25 26 27 28 29 30 31 32 33 34 35 36 37 38 39 40 41 42 43 44 45 46 47 48 49 50

000
ASUS43 KLMK 051310
RWRKY
KENTUCKY REGIONAL WEATHER ROUNDUP
NATIONAL WEATHER SERVICE LOUISVILLE KY
800 AM EST MON DEC 05 2016

NOTE "FAIR" INDICATES FEW OR NO CLOUDS BELOW 12,000 FEET
WITH NO SIGNIFICANT WEATHER AND/OR OBSTRUCTIONS TO VISIBILITY.

KYZ001>023-026-027-061>063-070>075-051400-
WESTERN AND SOUTH CENTRAL KENTUCKY

CITY           SKY/WX    TMP DP  RH WIND       PRES   REMARKS
PADUCAH        PTCLDY    36  32  85 NE6       30.05F WCI  31
HENDERSON      CLOUDY    37  30  75 SE5       30.08S WCI  34
OWENSBORO      CLOUDY    39  33  79 CALM      30.08S
HOPKINSVILLE   CLOUDY    38  34  85 E5        30.06S WCI  35
BOWLING GREEN  CLOUDY    40  35  83 NE8       30.08R WCI  34
GLASGOW        CLOUDY    38  38 100 E3        30.08R
$$

KYZ024-025-028>034-038-045-046-053-051400-
NORTH CENTRAL KENTUCKY

CITY           SKY/WX    TMP DP  RH WIND       PRES   REMARKS
LOUISVILLE/SDF CLOUDY    40  32  73 NE7       30.08F
LOUISVILLE/LOU CLOUDY    40  31  70 N7        30.09S
FORT KNOX      CLOUDY    37  32  82 NE5       30.05S WCI  34
$$

KYZ035>037-039>044-047>052-055>060-089>105-051400-
NORTHEAST KENTUCKY

CITY           SKY/WX    TMP DP  RH WIND       PRES   REMARKS
LEXINGTON      CLOUDY    38  35  89 N5        30.08S WCI  34
COVINGTON      CLOUDY    36  31  82 NW7       30.08S WCI  30
FRANKFORT      CLOUDY    38  33  82 N5        30.07F WCI  34
$$

KYZ054-064>069-076>088-106>120-051400-
SOUTHEAST KENTUCKY

CITY           SKY/WX    TMP DP  RH WIND       PRES   REMARKS
JACKSON        CLOUDY    42  39  89 VRB5      30.06S
LONDON         CLOUDY    43  40  89 N3        30.06R
SOMERSET       CLOUDY    41  39  93 N5        30.08S
MIDDLESBORO    CLOUDY    45  44  95 N3        30.06R
MONTICELLO     CLOUDY    43  41  93 N12       30.07F
$$





USA.gov is the U.S. government's official web portal to all federal, state and local government web resources and services.